This demonstration page uses our WeatherBlox Daily Observations layout. Learn more.

Left ArrowRight Arrow

Hourly Observations for February 13, 2022

Temp ( °F °C ) Dew Point ( °F °C ) Humidity (%) Winds ( mph kmh ) Pressure ( in mb ) Visibility ( mi km ) Precip ( " mm )
12:56 am 00:56 Mostly Cloudy 26 -3.2 11 -11.7 52 52 NNE 5 7 30.29 1026 10 16 0.00 0.00
1:56 am 01:56 Mostly Cloudy 26 -3.5 10 -12.2 51 51 N 12 19 30.31 1026 10 16 0.00 0.00
2:56 am 02:56 Mostly Cloudy 24 -4.4 10 -12.3 54 54 N 8 13 30.32 1027 10 16 0.00 0.00
3:56 am 03:56 Mostly Clear 21 -6 9 -12.7 59 59 N 10 17 30.36 1028 10 16 0.00 0.00
4:56 am 04:56 Clear 19 -7.5 8 -13.4 63 63 N 14 22 30.40 1029 10 16 0.00 0.00
5:56 am 05:56 Clear 17 -8.4 8 -13.5 67 67 N 9 15 30.42 1030 10 16 0.00 0.00
6:56 am 06:56 Mostly Clear 16 -9 8 -13.3 71 71 N 10 17 30.45 1031 10 16 0.00 0.00
7:56 am 07:56 Sunny 16 -9.1 7 -13.9 68 68 N 9 15 30.48 1032 10 16 0.00 0.00
8:56 am 08:56 Sunny 16 -9 4 -15.8 58 58 N 8 13 30.52 1033 10 16 0.00 0.00
9:56 am 09:56 Sunny 17 -8.4 2 -16.8 51 51 NNE 10 17 30.53 1034 10 16 0.00 0.00
10:56 am 10:56 Sunny 18 -7.8 1 -17.4 46 46 N 12 19 30.53 1034 10 16 0.00 0.00
11:56 am 11:56 Mostly Sunny 20 -6.7 0 -17.8 41 41 N 9 15 30.52 1034 10 16 0.00 0.00
12:56 pm 12:56 Mostly Sunny 21 -5.9 0 -18 38 38 Calm 30.47 1032 10 16 0.00 0.00
1:56 pm 13:56 Mostly Sunny 23 -4.9 0 -18 35 35 SW 7 11 30.44 1031 10 16 0.00 0.00
2:56 pm 14:56 Sunny 24 -4.3 -2 -18.9 31 31 SE 3 6 30.40 1029 10 16 0.00 0.00
3:56 pm 15:56 Sunny 26 -3.6 0 -17.9 32 32 S 9 15 30.36 1028 10 16 0.00 0.00
4:56 pm 16:56 Mostly Sunny 26 -3.2 -2 -18.7 29 29 S 8 13 30.32 1027 10 16 0.00 0.00
5:56 pm 17:56 Mostly Clear 25 -3.8 2 -16.7 36 36 SSE 12 19 30.28 1026 10 16 0.00 0.00
6:56 pm 18:56 Mostly Clear 24 -4.5 4 -15.5 42 42 S 9 15 30.27 1025 10 16 0.00 0.00
7:56 pm 19:56 Mostly Cloudy 24 -4.4 3 -16 40 40 S 5 7 30.22 1023 10 16 0.00 0.00
8:56 pm 20:56 Mostly Cloudy 25 -3.8 4 -15.8 39 39 S 8 13 30.19 1022 10 16 0.00 0.00
9:56 pm 21:56 Mostly Clear 25 -4.1 6 -14.3 45 45 S 8 13 30.18 1022 10 16 0.00 0.00
10:56 pm 22:56 Mostly Cloudy 24 -4.7 8 -13.3 51 51 Calm 30.18 1022 10 16 0.00 0.00
11:56 pm 23:56 Mostly Cloudy 23 -5 10 -12 58 58 Calm 30.18 1022 10 16 0.00 0.00

Powered by AerisWeather